THAICOM 8

Last updated on Sept. 28, 2020, 5:45 a.m. UTC

1 41552U 16031A   20271.86133610 -.00000145  00000-0  00000-0 0  9999
2 41552   0.0908  85.2547 0001645 346.3155 324.1689  1.00274332 15775
UTC
Height (km)
Latitude
Longitude
Inclination
Orbital Period
UTC large
Height (km)
Speed (km/s)
/
Latitude / Longitude
Inclination (degrees)
Orbital Period (minutes)
Azimuth
Elevation
Range (km)
Doppler Factor
iOS Compass Heading
iOS Angle

Next 30 passes for location: Hong Kong

Rise time Rise Azimuth (degrees) Set time Set Azimuth (degrees) Duration Max altitude (degrees)

No matching passes for this satellites